Location: Newark
(47.5783°N, 6.7622°E)
Time: 12:53:09
(UTC+00:00)

A-11 Canister half - All Passes

Search period start: 17 February 2020 00:00
Search period end: 27 February 2020 00:00
Orbit: 1517 x 1683 km, 47.2° (Epoch: 16 February)

Date Brightness Start Highest point End Pass type
(mag) Time Alt. Az. Time Alt. Az. Time Alt. Az.
17 Feb - 00:21:41 10° W 00:28:49 25° SW 00:35:52 10° S night (unlit)
17 Feb - 15:40:08 10° SSW 15:48:43 34° SE 15:57:04 10° ENE daylight
17 Feb - 17:42:52 10° WSW 17:52:44 72° SSE 18:02:14 10° ENE visible
17 Feb - 19:47:51 10° W 19:57:40 89° S 20:07:09 10° E visible
17 Feb - 21:53:00 10° WNW 22:02:27 65° SSW 22:11:36 10° SE visible
17 Feb - 23:58:39 10° W 00:06:02 27° SW 00:13:18 10° S visible
18 Feb - 15:17:26 10° SSW 15:25:52 32° SE 15:34:06 10° ENE daylight
18 Feb - 17:19:58 10° WSW 17:29:49 70° SSE 17:39:20 10° ENE visible
18 Feb - 19:24:54 10° W 19:34:45 89° S 19:44:14 10° E visible
18 Feb - 21:30:04 10° WNW 21:39:34 67° SSW 21:48:46 10° SE visible
18 Feb - 23:35:36 10° W 23:43:13 29° SW 23:50:43 10° S visible
19 Feb - 14:54:45 10° SSW 15:03:02 31° SE 15:11:07 10° ENE daylight
19 Feb - 16:57:03 10° SW 17:06:54 68° SSE 17:16:25 10° ENE daylight
19 Feb - 19:01:55 10° W 19:11:49 89° S 19:21:20 10° E visible
19 Feb - 21:07:06 10° WNW 21:16:41 69° SSW 21:25:56 10° ESE visible
19 Feb - 23:12:35 10° WNW 23:20:25 30° SW 23:28:06 10° SSE visible
20 Feb - 14:32:05 10° S 14:40:12 29° SE 14:48:08 10° E daylight
20 Feb - 16:34:09 10° SW 16:44:00 66° SSE 16:53:32 10° ENE daylight
20 Feb - 18:38:57 10° W 18:48:53 89° S 18:58:26 10° E visible
20 Feb - 20:44:09 10° WNW 20:53:48 71° SSW 21:03:05 10° ESE visible
20 Feb - 22:49:34 10° WNW 22:57:36 32° SW 23:05:28 10° SSE visible
21 Feb - 14:09:26 10° S 14:17:22 27° SE 14:25:06 10° E daylight
21 Feb - 16:11:16 10° SW 16:21:06 64° SSE 16:30:37 10° ENE daylight
21 Feb - 18:16:00 10° W 18:25:57 89° S 18:35:31 10° E visible
21 Feb - 20:21:13 10° WNW 20:30:54 73° SSW 20:40:13 10° ESE visible
21 Feb - 22:26:33 10° WNW 22:34:47 34° SW 22:42:50 10° SSE visible
22 Feb - 13:46:49 10° S 13:54:31 26° SE 14:02:05 10° E daylight
22 Feb - 15:48:22 10° SW 15:58:11 62° SSE 16:07:43 10° ENE daylight
22 Feb - 17:53:01 10° W 18:03:00 88° S 18:12:37 10° E visible
22 Feb - 19:58:15 10° WNW 20:07:59 75° SSW 20:17:22 10° ESE visible
22 Feb - 22:03:33 10° WNW 22:11:58 36° SW 22:20:09 10° SSE visible
23 Feb - 13:24:14 10° S 13:31:41 24° SE 13:39:02 10° E daylight
23 Feb - 15:25:30 10° SW 15:35:17 60° SSE 15:44:48 10° ENE daylight
23 Feb - 17:30:03 10° W 17:40:04 88° S 17:49:42 10° E visible
23 Feb - 19:35:18 10° WNW 19:45:05 77° SSW 19:54:30 10° ESE visible
23 Feb - 21:40:34 10° WNW 21:49:08 38° SW 21:57:28 10° SSE visible
24 Feb - 13:01:40 10° S 13:08:52 23° SE 13:15:58 10° E daylight
24 Feb - 15:02:37 10° SW 15:12:23 58° SSE 15:21:53 10° ENE daylight
24 Feb - 17:07:05 10° W 17:17:07 87° S 17:26:48 10° E daylight
24 Feb - 19:12:20 10° W 19:22:10 78° SSW 19:31:37 10° ESE visible
24 Feb - 21:17:35 10° WNW 21:26:18 40° SW 21:34:46 10° SSE visible
24 Feb - 23:27:16 10° WSW 23:28:59 11° WSW 23:30:40 10° SW visible
25 Feb - 12:39:08 10° S 12:46:03 21° SE 12:52:51 10° E daylight
25 Feb - 14:39:46 10° SW 14:49:29 56° SSE 14:58:57 10° ENE daylight
25 Feb - 16:44:07 10° WSW 16:54:11 86° S 17:03:53 10° E daylight
25 Feb - 18:49:22 10° W 18:59:15 80° SSW 19:08:45 10° ESE visible
25 Feb - 20:54:36 10° WNW 21:03:28 42° SW 21:12:03 10° SSE visible
25 Feb - 23:03:11 10° WSW 23:06:13 12° WSW 23:09:14 10° SW visible
26 Feb - 12:16:39 10° S 12:23:14 20° SE 12:29:43 10° E daylight
26 Feb - 14:16:54 10° SW 14:26:35 54° SSE 14:36:02 10° ENE daylight
26 Feb - 16:21:10 10° WSW 16:31:14 86° S 16:40:59 10° E daylight
26 Feb - 18:26:25 10° W 18:36:20 81° SSW 18:45:52 10° ESE visible
26 Feb - 20:31:38 10° WNW 20:40:37 45° SW 20:49:19 10° SSE visible
26 Feb - 22:39:32 10° W 22:43:27 13° WSW 22:47:19 10° SSW visible
